Regional Weather Roundup
Issued by NWS Northern Indiana

Home | Current Version | Previous Version | Text Only | Print | Product List | Glossary Off
Versions: 1 2 3 4 5 6 7 8 9 10 11 12 13 14 15 16 17 18 19 20 21 22 23 24 25 26 27 28 29 30 31 32 33 34 35 36 37 38 39 40 41 42 43 44 45 46 47 48 49 50

000
ASUS43 KIWX 180710
RWRIWX

KIWX WEATHER ROUNDUP
NATIONAL WEATHER SERVICE NORTHERN INDIANA
300 AM EDT WED OCT 18 2017

NOTE: "FAIR" INDICATES FEW OR NO CLOUDS BELOW 12,000 FEET WITH NO
SIGNIFICANT WEATHER AND/OR OBSTRUCTIONS TO VISIBILITY.

* THESE STATIONS ARE NOT UNDER NWS QUALITY CONTROL. THEY ALSO MAY NOT
  REPORT WEATHER SUCH AS PRECIPITATION OR FOG.

INZ001>027-180800-
NORTHERN INDIANA

CITY           SKY/WX    TMP DP  RH WIND       PRES   REMARKS
GARY*          CLEAR     53  38  56 S3        30.18S
VALPARAISO     CLEAR     49  40  71 S6        30.19F
MICHIGAN CITY* CLEAR     50  39  66 S5        30.20S
LAPORTE*       CLEAR     43  39  86 CALM      30.21R
KNOX*          CLEAR     45  39  81 S5        30.20S
SOUTH BEND     CLEAR     49  40  71 SW7       30.20F
GOSHEN         CLEAR     48  38  68 S7        30.21S
MONTICELLO*    CLEAR     50  39  67 S5        30.21S
LOGANSPORT*    CLEAR     43  37  81 S6        30.23S
WARSAW*        CLEAR     46  39  76 CALM      30.22S
AUBURN*        CLEAR     46  39  76 CALM      30.24S
FORT WAYNE     CLEAR     43  37  79 S6        30.24F
HUNTINGTON*    CLEAR     47  41  80 S3        30.23F
PERU/GRISSOM   CLEAR     45  39  79 S7        30.22F
MARION*        CLEAR     43  37  81 S5        30.24F

$$
INZ028>050-180800-
CENTRAL INDIANA

CITY           SKY/WX    TMP DP  RH WIND       PRES   REMARKS
LAFAYETTE      CLEAR     49  41  74 S3        30.22S
KOKOMO*        CLEAR     42  39  89 S8        30.24F
MUNCIE*        CLEAR     43  39  86 S3        30.25S
INDIANAPOLIS   CLEAR     46  40  79 CALM      30.24F

$$
MIZ043>046-050>051-056>058-064>065-071>073-077>080-180800-
SOUTHWEST LOWER MICHIGAN

CITY           SKY/WX    TMP DP  RH WIND       PRES   REMARKS
BATTLE CREEK   CLEAR     49  40  71 S6        30.19S
BENTON HARBOR  CLEAR     52  39  61 S7        30.18S
COLDWATER*     CLEAR     51  39  63 SW7       30.20S
HILLSDALE*     CLEAR     50  37  62 SW6       30.20S
HOLLAND        CLEAR     55  45  68 SW8       30.16S
GRAND RAPIDS   CLEAR     53  42  66 S10       30.16S
KALAMAZOO      CLEAR     47  38  71 S6        30.19S
STURGIS*       CLEAR     44  40  85 SW6       30.20S
THREE RIVERS*  FAIR      49  41  76 SW5       30.20F

$$
OHZ001>008-015>018-024>025-180800-
NORTHWEST OHIO

CITY           SKY/WX    TMP DP  RH WIND       PRES   REMARKS
WAUSEON*       FAIR      48  41  76 SW7       30.22S
DEFIANCE       CLEAR     45  38  76 S3        30.24S
FINDLAY        CLEAR     45  37  73 S7        30.25S
TOLEDO EXPRESS CLEAR     50  42  74 SW5       30.22S
TOLEDO METCALF CLEAR     48  40  73 SW7       30.24R
LIMA           CLEAR     45  40  82 S3        30.26S

$$
AND FOR LAKE MICHIGAN COASTAL AND OPEN LAKE BUOY OBSERVATIONS

STATION/POSITION TEMP    WIND        PRES    VSBY  WAVE
                 AIR SEA DIR/SP/G                  HT/PER
                 (F)     (DEG/KT/KT) (MB)    (MI)  (FT/S)
CALUMET HARBOR           190/  5/  6 1020.8R
MICHIGAN CITY     54     170/ 13/ 15   N/A
BURNS HARBOR      54     190/  8/ 12 1022.4S
SAINT JOSEPH      55     190/  6/ 14 1022.0
SOUTH LAKE BUOY   61 61  240/ 17/ 21 1020.3R         4/ 5
4 MI NW BRIDGMAN  56 58  200/ 12/ 14 1022.5          3/ 4
MICHIGAN CITY     55 57  200/ 12/ 14   N/A           2/ 3

$$
&&




USA.gov is the U.S. government's official web portal to all federal, state and local government web resources and services.